Linn Creek, MO

3:55 AM CDT on August 27, 2016 (GMT -0500)
Camdenton

Weather History for KH21 - November, 2012

Change the Weather History Date:

Wednesday, November 7, 2012

  Actual Average (KAIZ) Record (KAIZ)
Temperature  
Mean Temperature 42 °F -  
Max Temperature 50 °F 55 °F 78 °F (1999)
Min Temperature 33 °F 38 °F 19 °F (2007)
Degree Days  
Heating Degree Days 24    
Moisture  
Dew Point 32 °F    
Average Humidity 65    
Maximum Humidity 93    
Minimum Humidity 50    
Precipitation  
Precipitation 0.00 in - - ()
Sea Level Pressure  
Sea Level Pressure 30.11 in    
Wind  
Wind Speed 7 mph ()    
Max Wind Speed 17 mph    
Max Gust Speed 23 mph    
Visibility 10.0 miles    
Events      
Averages and records for this station are not official NWS values.
T = Trace of Precipitation, MM = Missing Value Source: Averaged Metar Reports

Daily Weather History Graph

Daily Weather History Graph

Search for Another Location

Airport or City:

Trip Planner

Search our weather history database for the weather conditions in past years. The results will help you decide how hot, cold, wet, or windy it might be!

Date:

Astronomy

Nov. 07, 2012 Rise Set
Actual Time 6:43 AM CST 5:05 PM CST
Civil Twilight 6:15 AM CST 5:32 PM CST
Nautical Twilight 5:44 AM CST 6:04 PM CST
Astronomical Twilight 5:13 AM CST 6:35 PM CST
Moon No Moon Rise 1:08 PM CST (11/7)
Length of Visible Light 11h 17m
Length of Day
10h 21m
Last Quarter, 43% of the Moon is Illuminated
Nov 7
Last Quarter
Nov 13
New
Nov 20
First Quarter
Nov 28
Full
Dec 6
Last Quarter

Hourly Weather History & Observations

Time (CST) Temp. Windchill Dew Point Humidity Pressure Visibility Wind Dir Wind Speed Gust Speed Precip Events Conditions
12:15 AM 44.6 °F 41.4 °F 32.0 °F 61% 30.02 in 10.0 mi West 5.8 mph - N/A   Scattered Clouds
12:35 AM 42.8 °F 39.3 °F 32.0 °F 66% 30.02 in 10.0 mi West 5.8 mph - N/A   Mostly Cloudy
12:55 AM 42.8 °F 37.5 °F 32.0 °F 66% 30.02 in 10.0 mi West 9.2 mph - N/A   Mostly Cloudy
1:15 AM 44.6 °F 39.2 °F 32.0 °F 61% 30.02 in 10.0 mi West 10.4 mph - N/A   Overcast
1:35 AM 44.6 °F 39.7 °F 32.0 °F 61% 30.02 in 10.0 mi West 9.2 mph - N/A   Mostly Cloudy
1:55 AM 42.8 °F 38.6 °F 32.0 °F 66% 30.02 in 10.0 mi West 6.9 mph - N/A   Scattered Clouds
2:15 AM 42.8 °F 38.0 °F 32.0 °F 66% 30.03 in 10.0 mi West 8.1 mph - N/A   Mostly Cloudy
2:55 AM 42.8 °F 37.5 °F 32.0 °F 66% 30.03 in 10.0 mi WNW 9.2 mph 17.3 mph N/A   Clear
3:15 AM 42.8 °F 38.0 °F 32.0 °F 66% 30.03 in 10.0 mi WNW 8.1 mph - N/A   Clear
3:35 AM 42.8 °F 38.0 °F 32.0 °F 66% 30.03 in 10.0 mi West 8.1 mph - N/A   Clear
7:15 AM 37.4 °F 32.1 °F 32.0 °F 81% 30.08 in 10.0 mi West 6.9 mph - N/A   Clear
7:35 AM 39.2 °F 33.0 °F 32.0 °F 75% 30.09 in 10.0 mi WNW 9.2 mph - N/A   Clear
7:55 AM 41.0 °F 34.7 °F 32.0 °F 70% 30.10 in 10.0 mi WNW 10.4 mph 16.1 mph N/A   Clear
8:15 AM 42.8 °F 37.5 °F 32.0 °F 66% 30.10 in 10.0 mi NW 9.2 mph - N/A   Mostly Cloudy
8:35 AM 44.6 °F 38.8 °F 32.0 °F 61% 30.11 in 10.0 mi WNW 11.5 mph - N/A   Scattered Clouds
8:55 AM 44.6 °F 39.2 °F 32.0 °F 61% 30.11 in 10.0 mi NW 10.4 mph 19.6 mph N/A   Scattered Clouds
9:15 AM 46.4 °F 40.4 °F 32.0 °F 57% 30.12 in 10.0 mi NW 13.8 mph 18.4 mph N/A   Clear
9:35 AM 46.4 °F 41.9 °F 32.0 °F 57% 30.12 in 10.0 mi NNW 9.2 mph 17.3 mph N/A   Clear
9:55 AM 46.4 °F 39.5 °F 32.0 °F 57% 30.13 in 10.0 mi NW 17.3 mph 23.0 mph N/A   Scattered Clouds
10:15 AM 46.4 °F 40.4 °F 32.0 °F 57% 30.13 in 10.0 mi NNW 13.8 mph 21.9 mph N/A   Scattered Clouds
10:35 AM 46.4 °F 40.7 °F 32.0 °F 57% 30.14 in 10.0 mi NNW 12.7 mph 17.3 mph N/A   Mostly Cloudy
10:55 AM 46.4 °F 40.7 °F 32.0 °F 57% 30.14 in 10.0 mi NW 12.7 mph 18.4 mph N/A   Overcast
11:15 AM 48.2 °F - 32.0 °F 54% 30.14 in 10.0 mi NNW 15.0 mph - N/A   Mostly Cloudy
11:35 AM 50.0 °F - 32.0 °F 50% 30.14 in 10.0 mi NNW 11.5 mph 17.3 mph N/A   Mostly Cloudy
11:55 AM 48.2 °F - 32.0 °F 54% 30.13 in 10.0 mi NW 6.9 mph 11.5 mph N/A   Mostly Cloudy
12:15 PM 50.0 °F - 32.0 °F 50% 30.13 in 10.0 mi WNW 10.4 mph 19.6 mph N/A   Mostly Cloudy
12:35 PM 50.0 °F - 32.0 °F 50% 30.12 in 10.0 mi NW 9.2 mph - N/A   Scattered Clouds
12:55 PM 48.2 °F - 32.0 °F 54% 30.12 in 10.0 mi WNW 11.5 mph 17.3 mph N/A   Scattered Clouds
1:15 PM 50.0 °F - 32.0 °F 50% 30.11 in 10.0 mi NNW 6.9 mph - N/A   Clear
1:35 PM 50.0 °F - 32.0 °F 50% 30.11 in 10.0 mi NNW 6.9 mph - N/A   Clear
1:55 PM 50.0 °F - 32.0 °F 50% 30.11 in 10.0 mi NNW 8.1 mph - N/A   Clear
2:15 PM 50.0 °F - 32.0 °F 50% 30.11 in 10.0 mi NW 8.1 mph - N/A   Clear
2:35 PM 50.0 °F - 32.0 °F 50% 30.11 in 10.0 mi NW 8.1 mph - N/A   Clear
2:55 PM 50.0 °F - 32.0 °F 50% 30.12 in 10.0 mi NW 4.6 mph - N/A   Clear
3:15 PM 50.0 °F - 32.0 °F 50% 30.12 in 10.0 mi NNW 5.8 mph - N/A   Clear
3:35 PM 50.0 °F - 32.0 °F 50% 30.12 in 10.0 mi North 4.6 mph - N/A   Clear
3:55 PM 50.0 °F - 32.0 °F 50% 30.12 in 10.0 mi North 3.5 mph - N/A   Clear
4:15 PM 50.0 °F - 32.0 °F 50% 30.12 in 10.0 mi Calm Calm - N/A   Clear
4:35 PM 48.2 °F - 32.0 °F 54% 30.12 in 10.0 mi NE 3.5 mph - N/A   Clear
5:15 PM 46.4 °F - 32.0 °F 57% 30.12 in 10.0 mi Calm Calm - N/A   Clear
5:35 PM 46.4 °F - 32.0 °F 57% 30.13 in 10.0 mi Calm Calm - N/A   Clear
5:55 PM 44.6 °F - 32.0 °F 61% 30.13 in 10.0 mi Calm Calm - N/A   Clear
6:15 PM 44.6 °F 43.1 °F 32.0 °F 61% 30.13 in 10.0 mi ENE 3.5 mph - N/A   Clear
6:35 PM 44.6 °F - 32.0 °F 61% 30.14 in 10.0 mi Calm Calm - N/A   Clear
6:55 PM 42.8 °F - 32.0 °F 66% 30.14 in 10.0 mi Calm Calm - N/A   Clear
7:15 PM 41.0 °F 39.0 °F 32.0 °F 70% 30.14 in 10.0 mi ESE 3.5 mph - N/A   Clear
7:35 PM 41.0 °F 38.0 °F 32.0 °F 70% 30.14 in 10.0 mi East 4.6 mph - N/A   Clear
7:55 PM 37.4 °F 34.9 °F 32.0 °F 81% 30.14 in 10.0 mi East 3.5 mph - N/A   Clear
8:15 PM 37.4 °F 34.9 °F 32.0 °F 81% 30.15 in 10.0 mi East 3.5 mph - N/A   Clear
8:35 PM 37.4 °F 33.8 °F 32.0 °F 81% 30.15 in 10.0 mi ESE 4.6 mph - N/A   Clear
8:55 PM 37.4 °F 33.8 °F 32.0 °F 81% 30.16 in 10.0 mi ESE 4.6 mph - N/A   Clear
9:15 PM 37.4 °F 33.8 °F 32.0 °F 81% 30.16 in 10.0 mi ESE 4.6 mph - N/A   Clear
9:35 PM 37.4 °F 32.1 °F 32.0 °F 81% 30.16 in 10.0 mi ESE 6.9 mph - N/A   Clear
9:55 PM 35.6 °F 30.7 °F 32.0 °F 87% 30.16 in 10.0 mi ESE 5.8 mph - N/A   Clear
10:15 PM 35.6 °F 29.9 °F 32.0 °F 87% 30.16 in 10.0 mi ESE 6.9 mph - N/A   Clear
10:35 PM 35.6 °F 30.7 °F 32.0 °F 87% 30.16 in 10.0 mi ESE 5.8 mph - N/A   Clear
10:55 PM 35.6 °F 30.7 °F 32.0 °F 87% 30.16 in 10.0 mi SE 5.8 mph - N/A   Clear
11:15 PM 33.8 °F 29.6 °F 32.0 °F 93% 30.16 in 10.0 mi SE 4.6 mph - N/A   Clear
11:35 PM 35.6 °F 29.9 °F 32.0 °F 87% 30.16 in 10.0 mi SE 6.9 mph - N/A   Clear
11:55 PM 35.6 °F 29.9 °F 32.0 °F 87% 30.16 in 10.0 mi SE 6.9 mph - N/A   Clear